Weather Roundup
Issued by NWS

Home | Current Version | Previous Version | Text Only | Print | Product List | Glossary On
Versions: 1 2 3 4 5 6 7 8 9 10 11 12 13 14 15 16 17 18 19 20 21 22 23 24 25 26 27 28 29 30 31 32 33 34 35 36 37 38 39 40 41 42 43 44 45 46 47 48 49 50
000
NZUS93 KARX 290410
HRRWXR

CURRENT HOURLY OBSERVATIONS ACROSS
MUCH OF THE UPPER MISSISSIPPI VALLEY
NATIONAL WEATHER SERVICE LA CROSSE WI
1000 PM CST SUN DEC 28 2014


...SOUTHEAST MINNESOTA...


CITY           SKY/WX    TMP DP  RH WIND       PRES   REMARKS
ROCHESTER      MOCLDY    13  10  88 N8        30.25S FOG     WCI   2
ROCHESTER/MAYO FAIR      14  11  86 CALM      30.27S
WINONA         PTCLDY    12  10  92 CALM      30.32R
AUSTIN         CLOUDY    14  10  85 NE5       30.26R WCI   6
ALBERT LEA     CLOUDY    16  12  86 NE5       30.26S WCI   9
DODGE CENTER   MOCLDY    12  10  92 NE7       30.25F WCI   2
PRESTON        CLOUDY    13  11  91 NE3       30.26R
OWATONNA       CLOUDY    10   9  92 NE8       30.27S WCI  -1
FARIBAULT      MOCLDY    12  10  92 N3        30.29R
$$

...ELSEWHERE IN MINNESOTA...


CITY           SKY/WX    TMP DP  RH WIND       PRES   REMARKS
MINNEAPOLIS    PTCLDY    12   1  61 N8        30.33R WCI   0
INTNL FALLS    CLEAR     -9 -14  78 W6        30.36R WCI -22
DULUTH         CLEAR      2  -7  66 NW12      30.27R WCI -15
RED WING       PTCLDY    10   5  79 CALM      30.32R
REDWOOD FALLS  CLOUDY    17   7  64 NE5       30.33R WCI  10
MANKATO        CLOUDY    12   9  85 CALM      30.30R
WORTHINGTON    CLOUDY    18 -27  12 N9        30.26R WCI   6
FAIRMONT       CLOUDY    18  12  79 MISG      30.28R
$$

...SOUTHWEST WISCONSIN...


CITY           SKY/WX    TMP DP  RH WIND       PRES   REMARKS
LA CROSSE      PTCLDY    19  13  77 CALM      30.31R
PRAIRIE DU CHI CLOUDY    25  19  76 CALM      30.26S
BOSCOBEL       CLOUDY    20  17  88 CALM      30.27R
LONE ROCK      CLOUDY    32  19  58 N9        30.26R WCI  24
PLATTEVILLE    CLOUDY    24  21  86 CALM      30.24R
FORT MC COY    PTCLDY    16  14  91 N3        30.29R
CAMP DOUGLAS   PTCLDY    14  14  99 CALM      30.28R
VIROQUA        FAIR      19  17  88 NE6       30.25R WCI  11
WIS DELLS      CLOUDY    22  15  72 N7        30.26R WCI  14
$$

...ELSEWHERE IN WISCONSIN...


CITY           SKY/WX    TMP DP  RH WIND       PRES   REMARKS
MILWAUKEE      PTCLDY    26  17  68 CALM      30.23S
MADISON        CLOUDY    28  20  71 N10       30.23S WCI  19
GREEN BAY      PTCLDY    20  11  68 N10       30.27R WCI   9
EAU CLAIRE     PTCLDY    -1  -6  79 N5        30.30R WCI -11
BLACK RVR FLS  FAIR       5   2  88 CALM      30.29R
MEDFORD        PTCLDY   N/A N/A N/A N3        30.24R
WAUSAU         CLEAR      6   2  83 CALM      30.24R
WIS RAPIDS     CLEAR     15   9  76 N7        30.27S WCI   5
MARSHFIELD     PTCLDY    10   6  84 N6        30.24S WCI   0
RICE LAKE      FAIR       4  -3  72 N3        30.31R
$$

...NORTHEAST IOWA...


CITY           SKY/WX    TMP DP  RH WIND       PRES   REMARKS
DECORAH        CLOUDY    19  16  86 NE6       30.24S WCI  11
MASON CITY     MOCLDY    12   9  87 N5        30.26R WCI   4
CHARLES CITY   MOCLDY    19  16  86 NE10      30.25S WCI   8
OELWEIN        MOCLDY    23  19  86 NE8       30.24R WCI  14
$$

...ELSEWHERE IN IOWA...


CITY           SKY/WX    TMP DP  RH WIND       PRES   REMARKS
DES MOINES     CLOUDY    30  22  72 NE7       30.21R WCI  23
IOWA CITY      MOCLDY    26  19  74 N3        30.24F
FORT DODGE     CLOUDY    19  14  79 NE7       30.24S WCI  10
$$

...NORTHERN ILLINOIS...


CITY           SKY/WX    TMP DP  RH WIND       PRES   REMARKS
CHICAGO-OHARE  PTCLDY    26  18  71 NW7       30.23R WCI  18
CHICAGO-MIDWAY MOCLDY    27  18  69 W5        30.24R WCI  22
MOLINE         PTCLDY    23  18  81 CALM      30.24R
ROCKFORD       PTCLDY    22  17  81 CALM      30.26R
PEORIA         CLEAR     24  17  74 CALM      30.24S
$$

NOTE: "FAIR" INDICATES FEW OR NO CLOUDS BELOW 12,000 FEET WITH NO
SIGNIFICANT WEATHER AND/OR OBSTRUCTIONS TO VISIBILITY. WIND
SPEEDS ARE IN MILES-PER-HOUR.



USA.gov is the U.S. government's official web portal to all federal, state and local government web resources and services.